GW0766 Weather Reports


Display with metric or nautical units.
time (UTC)temp
F
wind
direction
speed
MPH
gust
MPH
rain 1hr
in
rain 24hr
in
rain mn
in
humidity
%
barometer
mb
20260902035910 64 159 0.0 2.0 0.00 0.00 0.00 70 1014.6
20260902031233 75 244 0.0 0.0 0.00 0.00 0.00 67 993.1
20260902025848 65 159 0.0 1.0 0.00 0.00 0.00 70 1014.2
20260902021116 76 248 0.0 0.0 0.00 0.00 0.00 70 993.3
20260902005904 68 159 0.0 2.0 0.00 0.00 0.00 68 1014.3
20260902001535 76 314 0.0 0.0 0.00 0.00 0.00 63 993.6
20260901235858 69 159 0.0 0.0 0.00 0.00 0.00 66 1014.4
20260901221332 78 205 0.0 0.0 0.00 0.00 0.00 66 993.3
20260901215929 75 136 0.0 0.0 0.00 0.00 0.00 60 1014.5
20260901205904 78 136 0.0 0.0 0.00 0.00 0.00 56 1014.5
20260901201619 80 248 0.0 0.0 0.00 0.00 0.00 67 993.3
20260901185910 84 137 2.0 4.0 0.00 0.00 0.00 51 1013.8
20260901181517 82 161 0.0 0.0 0.00 0.00 0.00 77 992.4
20260901175906 87 188 3.0 6.0 0.00 0.00 0.00 47 1013.1
20260901161507 86 19 2.0 5.0 0.00 0.00 0.00 64 992.2
20260901155910 93 188 5.0 12.0 0.00 0.00 0.00 36 1013.4
20260901145900 95 219 2.0 6.0 0.00 0.00 0.00 33 1013.0
20260901142222 88 67 3.0 8.0 0.00 0.00 0.00 62 992.2
20260901125913 96 176 1.0 10.0 0.00 0.00 0.00 36 1013.6
20260901121702 88 59 4.0 10.0 0.00 0.00 0.00 63 992.8
20260901105856 94 11 7.0 12.0 0.00 0.00 0.00 41 1013.9
20260901102244 87 103 3.0 8.0 0.00 0.00 0.00 63 992.7
20260901091527 86 88 3.0 11.0 0.00 0.00 0.00 65 992.7
20260901085913 87 338 3.0 8.0 0.00 0.00 0.00 53 1014.4
20260901071324 85 63 0.0 2.0 0.00 0.00 0.00 55 992.0
20260901065911 75 334 3.0 6.0 0.00 0.00 0.00 72 1013.6
20260901055909 70 223 0.0 0.0 0.00 0.00 0.00 73 1014.0
20260901052211 77 212 0.0 5.0 0.00 0.00 0.00 70 991.3
20260901045858 67 223 0.0 0.0 0.00 0.00 0.00 72 1013.5